• In Hungary
  • List of Countries
  • For 7 days
  • Water Temperature
  • Satellite Maps
  • Weather Map
  • News
  • Weather Widgets
  • user-avatar
    Login

    Hourly Weather Podsarnie

    Today, 18 August, Saturday

    Time Temperature Precipitation Wind Pressure Humidity
    00:00 +16°C° 0 mm 1 mps 707 mmHg 87%
    01:00 +16°C° 0 mm 1 mps 707 mmHg 86%
    02:00 +16°C° 0 mm 1 mps 707 mmHg 86%
    03:00 +16°C° 0 mm 1 mps 707 mmHg 85%
    04:00 +16°C° 0 mm 1 mps 707 mmHg 85%
    05:00 +18°C° 0 mm 1 mps 707 mmHg 81%
    06:00 +20°C° 0 mm 1 mps 708 mmHg 77%
    07:00 +19°C° 0 mm 0 mps 708 mmHg 71%
    08:00 +23°C° 0.1 mm 1 mps 709 mmHg 64%
    09:00 +25°C° 0.1 mm 1 mps 709 mmHg 57%
    10:00 +26°C° 0.1 mm 1 mps 709 mmHg 50%
    11:00 +27°C° 0 mm 1 mps 709 mmHg 48%
    12:00 +27°C° 0 mm 2 mps 709 mmHg 46%
    13:00 +27°C° 0 mm 2 mps 709 mmHg 44%
    14:00 +27°C° 0 mm 2 mps 709 mmHg 46%
    15:00 +27°C° 0 mm 2 mps 709 mmHg 48%
    16:00 +27°C° 0 mm 2 mps 709 mmHg 50%
    17:00 +25°C° 0 mm 1 mps 709 mmHg 57%
    18:00 +22°C° 0 mm 1 mps 709 mmHg 64%
    19:00 +20°C° 0 mm 1 mps 708 mmHg 71%
    20:00 +20°C° 0 mm 1 mps 709 mmHg 73%
    21:00 +19°C° 0 mm 1 mps 709 mmHg 75%
    22:00 +18°C° 0 mm 1 mps 709 mmHg 77%
    23:00 +18°C° 0 mm 1 mps 709 mmHg 78%

    Tomorrow, 19 August, Sunday

    Time Temperature Precipitation Wind Pressure Humidity
    00:00 +18°C° 0 mm 1 mps 709 mmHg 78%
    01:00 +16°C° 0 mm 1 mps 709 mmHg 79%
    02:00 +16°C° 0 mm 1 mps 709 mmHg 79%
    03:00 +16°C° 0 mm 1 mps 709 mmHg 79%
    04:00 +16°C° 0 mm 1 mps 709 mmHg 79%
    05:00 +18°C° 0 mm 1 mps 709 mmHg 75%
    06:00 +20°C° 0 mm 1 mps 710 mmHg 71%
    07:00 +20°C° 0 mm 0 mps 710 mmHg 67%
    08:00 +23°C° 0 mm 1 mps 710 mmHg 61%
    09:00 +25°C° 0 mm 1 mps 711 mmHg 55%
    10:00 +27°C° 0 mm 1 mps 711 mmHg 48%
    11:00 +27°C° 0 mm 1 mps 711 mmHg 47%
    12:00 +28°C° 0 mm 1 mps 711 mmHg 45%
    13:00 +28°C° 0 mm 2 mps 711 mmHg 44%
    14:00 +28°C° 0.1 mm 2 mps 710 mmHg 46%
    15:00 +28°C° 0.1 mm 2 mps 710 mmHg 47%
    16:00 +27°C° 0.1 mm 2 mps 710 mmHg 49%
    17:00 +25°C° 0.2 mm 1 mps 709 mmHg 57%
    18:00 +23°C° 0.2 mm 1 mps 709 mmHg 65%
    19:00 +21°C° 0.2 mm 1 mps 709 mmHg 73%
    20:00 +20°C° 0 mm 1 mps 709 mmHg 76%
    21:00 +19°C° 0 mm 1 mps 709 mmHg 78%
    22:00 +19°C° 0 mm 1 mps 709 mmHg 81%
    23:00 +18°C° 0 mm 1 mps 709 mmHg 81%

    Day after tomorrow, 20 August, Monday

    Time Temperature Precipitation Wind Pressure Humidity
    00:00 +18°C° 0 mm 1 mps 708 mmHg 82%
    01:00 +18°C° 0 mm 1 mps 708 mmHg 83%
    02:00 +16°C° 0 mm 1 mps 708 mmHg 83%
    03:00 +16°C° 0 mm 1 mps 708 mmHg 84%
    04:00 +16°C° 0 mm 1 mps 708 mmHg 84%
    05:00 +19°C° 0 mm 1 mps 708 mmHg 80%
    06:00 +20°C° 0 mm 1 mps 708 mmHg 76%
    07:00 +22°C° 0 mm 1 mps 708 mmHg 72%
    08:00 +24°C° 0 mm 1 mps 709 mmHg 64%
    09:00 +26°C° 0 mm 1 mps 709 mmHg 55%
    10:00 +28°C° 0 mm 1 mps 709 mmHg 47%
    11:00 +28°C° 0.1 mm 1 mps 709 mmHg 45%
    12:00 +29°C° 0.1 mm 1 mps 709 mmHg 44%
    13:00 +29°C° 0.1 mm 1 mps 708 mmHg 42%
    14:00 +29°C° 0 mm 1 mps 708 mmHg 45%
    15:00 +28°C° 0 mm 1 mps 708 mmHg 48%
    16:00 +27°C° 0 mm 1 mps 707 mmHg 51%
    17:00 +26°C° 0.3 mm 1 mps 707 mmHg 57%
    18:00 +24°C° 0.3 mm 1 mps 707 mmHg 62%
    19:00 +22°C° 0.3 mm 1 mps 706 mmHg 68%
    20:00 +21°C° 0.2 mm 1 mps 706 mmHg 70%
    21:00 +21°C° 0.2 mm 1 mps 706 mmHg 73%
    22:00 +20°C° 0.2 mm 1 mps 707 mmHg 76%
    23:00 +19°C° 0 mm 1 mps 707 mmHg 77%

    21 August, Tuesday

    Time Temperature Precipitation Wind Pressure Humidity
    00:00 +19°C° 0 mm 1 mps 707 mmHg 79%
    01:00 +19°C° 0 mm 1 mps 707 mmHg 80%
    02:00 +18°C° 0 mm 1 mps 707 mmHg 82%
    03:00 +18°C° 0 mm 1 mps 707 mmHg 83%
    04:00 +18°C° 0 mm 1 mps 707 mmHg 85%
    05:00 +19°C° 0 mm 1 mps 707 mmHg 83%
    06:00 +19°C° 0 mm 2 mps 708 mmHg 81%
    07:00 +20°C° 0 mm 2 mps 708 mmHg 79%
    08:00 +21°C° 0.1 mm 2 mps 709 mmHg 75%
    09:00 +23°C° 0.1 mm 2 mps 709 mmHg 71%
    10:00 +24°C° 0.1 mm 2 mps 709 mmHg 67%
    11:00 +24°C° 0.2 mm 3 mps 709 mmHg 66%
    12:00 +24°C° 0.2 mm 3 mps 709 mmHg 65%
    13:00 +24°C° 0.2 mm 3 mps 709 mmHg 63%
    14:00 +24°C° 0.1 mm 3 mps 709 mmHg 63%
    15:00 +24°C° 0.1 mm 3 mps 709 mmHg 62%
    16:00 +24°C° 0.1 mm 3 mps 709 mmHg 62%
    17:00 +21°C° 0 mm 2 mps 709 mmHg 66%
    18:00 +19°C° 0 mm 2 mps 709 mmHg 71%
    19:00 +17°C° 0 mm 2 mps 709 mmHg 75%
    20:00 +16°C° 0 mm 1 mps 709 mmHg 75%
    21:00 +15°C° 0 mm 1 mps 709 mmHg 75%
    22:00 +14°C° 0 mm 1 mps 709 mmHg 76%
    23:00 +14°C° 0 mm 1 mps 709 mmHg 75%

    22 August, Wednesday

    Time Temperature Precipitation Wind Pressure Humidity
    00:00 +13°C° 0 mm 1 mps 709 mmHg 75%
    01:00 +13°C° 0 mm 1 mps 709 mmHg 75%
    02:00 +12°C° 0 mm 1 mps 709 mmHg 76%
    03:00 +12°C° 0 mm 1 mps 709 mmHg 76%
    04:00 +12°C° 0 mm 1 mps 709 mmHg 77%
    05:00 +13°C° 0 mm 1 mps 710 mmHg 73%
    06:00 +15°C° 0 mm 1 mps 710 mmHg 69%
    07:00 +18°C° 0 mm 1 mps 711 mmHg 65%
    08:00 +19°C° 0 mm 1 mps 711 mmHg 59%
    09:00 +20°C° 0 mm 2 mps 711 mmHg 53%
    10:00 +23°C° 0 mm 2 mps 711 mmHg 47%
    11:00 +24°C° 0 mm 2 mps 711 mmHg 46%
    12:00 +25°C° 0 mm 2 mps 711 mmHg 44%
    13:00 +26°C° 0 mm 2 mps 711 mmHg 42%
    14:00 +25°C° 0 mm 3 mps 711 mmHg 44%
    15:00 +25°C° 0 mm 3 mps 710 mmHg 47%
    16:00 +25°C° 0 mm 3 mps 710 mmHg 49%
    17:00 +23°C° 0 mm 2 mps 710 mmHg 60%
    18:00 +19°C° 0 mm 2 mps 709 mmHg 70%
    19:00 +17°C° 0 mm 2 mps 709 mmHg 80%
    20:00 +16°C° 0 mm 2 mps 709 mmHg 83%
    21:00 +15°C° 0 mm 2 mps 709 mmHg 86%
    22:00 +15°C° 0 mm 1 mps 709 mmHg 89%
    23:00 +14°C° 0 mm 1 mps 709 mmHg 89%

    23 August, Thursday

    Time Temperature Precipitation Wind Pressure Humidity
    00:00 +14°C° 0 mm 1 mps 708 mmHg 89%
    01:00 +14°C° 0 mm 1 mps 708 mmHg 89%
    02:00 +14°C° 0 mm 1 mps 708 mmHg 89%
    03:00 +14°C° 0 mm 1 mps 708 mmHg 88%
    04:00 +14°C° 0 mm 1 mps 708 mmHg 87%
    05:00 +15°C° 0 mm 1 mps 708 mmHg 82%
    06:00 +18°C° 0 mm 1 mps 708 mmHg 76%
    07:00 +20°C° 0 mm 1 mps 708 mmHg 70%
    08:00 +22°C° 0 mm 1 mps 708 mmHg 62%
    09:00 +25°C° 0 mm 1 mps 708 mmHg 55%
    10:00 +27°C° 0 mm 1 mps 708 mmHg 47%
    11:00 +28°C° 0 mm 1 mps 708 mmHg 45%
    12:00 +29°C° 0 mm 1 mps 708 mmHg 42%
    13:00 +29°C° 0 mm 1 mps 708 mmHg 40%
    14:00 +29°C° 0 mm 1 mps 707 mmHg 43%
    15:00 +28°C° 0 mm 1 mps 707 mmHg 45%
    16:00 +28°C° 0 mm 1 mps 706 mmHg 48%
    17:00 +26°C° 0 mm 1 mps 706 mmHg 54%
    18:00 +23°C° 0 mm 1 mps 705 mmHg 61%
    19:00 +21°C° 0 mm 1 mps 705 mmHg 68%
    20:00 +21°C° 0 mm 1 mps 705 mmHg 69%
    21:00 +20°C° 0 mm 1 mps 705 mmHg 71%
    22:00 +19°C° 0 mm 1 mps 705 mmHg 72%
    23:00 +19°C° 0 mm 1 mps 704 mmHg 72%
    Show more